Weather History for Camden, AR

Change the Weather History Date:

Monday, January 21, 2013

  Actual Average Record
Temperature  
Mean Temperature 42 °F -  
Max Temperature 51 °F 51 °F 81 °F (1954)
Min Temperature 32 °F 30 °F 5 °F (1985)
Degree Days  
Heating Degree Days 24    
Moisture  
Dew Point 27 °F    
Average Humidity 61    
Maximum Humidity 100    
Minimum Humidity 28    
Precipitation  
Precipitation 0.00 in - - ()
Sea Level Pressure  
Sea Level Pressure 30.27 in    
Wind  
Wind Speed 4 mph (NE)    
Max Wind Speed 16 mph    
Max Gust Speed 22 mph    
Visibility 10 miles    
Events      
Averages and records for this station are not official NWS values.
T = Trace of Precipitation, MM = Missing Value Source: NWS Daily Summary

Daily Weather History Graph

Daily Weather History Graph

Search for Another Location

Airport:

Trip Planner

Search our weather history database for the weather conditions in past years. The results will help you decide how hot, cold, wet, or windy it might be!

Date:

Astronomy

Jan. 21, 2013 Rise Set
Actual Time 7:13 AM CST 5:31 PM CST
Civil Twilight 6:46 AM CST 5:58 PM CST
Nautical Twilight 6:16 AM CST 6:28 PM CST
Astronomical Twilight 5:46 AM CST 6:58 PM CST
Moon 1:13 PM CST (1/21) 2:41 AM CST (1/21)
Length of Visible Light 11h 11m
Length of Day
10h 18m
Waxing Gibbous, 75% of the Moon is Illuminated
Jan 21
Waxing Gibbous
Jan 26
Full
Feb 3
Last Quarter
Feb 10
New
Feb 17
First Quarter

Hourly Weather History & Observations

Time (CST) Temp. Windchill Dew Point Humidity Pressure Visibility Wind Dir Wind Speed Gust Speed Precip Events Conditions
12:15 AM 37.4 °F - 35.6 °F 93% 30.17 in 10.0 mi Calm Calm - N/A   Clear
12:35 AM 37.4 °F - 35.6 °F 93% 30.17 in 7.0 mi Calm Calm - N/A   Clear
12:55 AM 35.6 °F - 35.6 °F 100% 30.17 in 5.0 mi Calm Calm - N/A   Clear
1:15 AM 37.4 °F - 35.6 °F 93% 30.17 in 3.0 mi Calm Calm - N/A   Clear
1:35 AM 37.4 °F - 35.6 °F 93% 30.18 in 10.0 mi Calm Calm - N/A   Mostly Cloudy
1:55 AM 37.4 °F - 35.6 °F 93% 30.18 in 10.0 mi Calm Calm - N/A   Mostly Cloudy
2:15 AM 37.4 °F - 35.6 °F 93% 30.18 in 9.0 mi Calm Calm - N/A   Mostly Cloudy
2:35 AM 37.4 °F - 35.6 °F 93% 30.19 in 10.0 mi Calm Calm - N/A   Scattered Clouds
2:55 AM 37.4 °F - 35.6 °F 93% 30.19 in 10.0 mi Calm Calm - N/A   Mostly Cloudy
3:15 AM 37.4 °F - 35.6 °F 93% 30.18 in 9.0 mi Calm Calm - N/A   Mostly Cloudy
3:35 AM 37.4 °F - 35.6 °F 93% 30.18 in 10.0 mi Calm Calm - N/A   Partly Cloudy
3:55 AM 37.4 °F - 35.6 °F 93% 30.18 in 8.0 mi Calm Calm - N/A   Mostly Cloudy
4:15 AM 37.4 °F - 35.6 °F 93% 30.18 in 10.0 mi Calm Calm - N/A   Mostly Cloudy
4:35 AM 37.4 °F - 35.6 °F 93% 30.19 in 9.0 mi Calm Calm - N/A   Mostly Cloudy
4:55 AM 37.4 °F 34.9 °F 35.6 °F 93% 30.20 in 9.0 mi North 3.5 mph - N/A   Mostly Cloudy
5:15 AM 39.2 °F 34.2 °F 37.4 °F 93% 30.20 in 10.0 mi North 6.9 mph - N/A   Mostly Cloudy
5:35 AM 39.2 °F 34.2 °F 37.4 °F 93% 30.21 in 10.0 mi North 6.9 mph - N/A   Mostly Cloudy
5:55 AM 39.2 °F 33.6 °F 35.6 °F 87% 30.22 in 10.0 mi NNE 8.1 mph - N/A   Partly Cloudy
6:15 AM 39.2 °F 33.6 °F 33.8 °F 81% 30.23 in 10.0 mi North 8.1 mph - N/A   Clear
6:35 AM 37.4 °F 31.4 °F 32.0 °F 81% 30.24 in 10.0 mi NNE 8.1 mph - N/A   Clear
6:55 AM 37.4 °F 31.4 °F 32.0 °F 81% 30.26 in 10.0 mi NNE 8.1 mph - N/A   Clear
7:15 AM 37.4 °F 31.4 °F 32.0 °F 81% 30.27 in 10.0 mi NNE 8.1 mph - N/A   Clear
7:35 AM 37.4 °F 29.8 °F 32.0 °F 81% 30.28 in 10.0 mi NNE 11.5 mph - N/A   Clear
7:55 AM 37.4 °F 28.9 °F 30.2 °F 75% 30.29 in 10.0 mi NNE 13.8 mph 18.4 mph N/A   Clear
8:15 AM 37.4 °F 30.3 °F 30.2 °F 75% 30.30 in 10.0 mi NNE 10.4 mph 19.6 mph N/A   Clear
8:35 AM 39.2 °F 32.0 °F 28.4 °F 65% 30.31 in 10.0 mi NNE 11.5 mph 19.6 mph N/A   Clear
8:55 AM 39.2 °F 31.2 °F 26.6 °F 61% 30.32 in 10.0 mi NNE 13.8 mph 18.4 mph N/A   Partly Cloudy
9:15 AM 39.2 °F 31.6 °F 24.8 °F 56% 30.33 in 10.0 mi NNE 12.7 mph 19.6 mph N/A   Partly Cloudy
9:35 AM 41.0 °F 35.2 °F 23.0 °F 49% 30.34 in 10.0 mi NNE 9.2 mph 16.1 mph N/A   Clear
9:55 AM 42.8 °F 35.1 °F 21.2 °F 42% 30.35 in 10.0 mi NNE 16.1 mph 20.7 mph N/A   Mostly Cloudy
10:15 AM 42.8 °F 36.6 °F 19.4 °F 39% 30.36 in 10.0 mi NNE 11.5 mph 21.9 mph N/A   Partly Cloudy
10:35 AM 44.6 °F 38.1 °F 21.2 °F 39% 30.36 in 10.0 mi NNE 13.8 mph 17.3 mph N/A   Clear
10:55 AM 44.6 °F 37.4 °F 19.4 °F 37% 30.36 in 10.0 mi NNE 16.1 mph - N/A   Mostly Cloudy
11:15 AM 46.4 °F 41.9 °F 19.4 °F 34% 30.36 in 10.0 mi NNE 9.2 mph - N/A   Overcast
11:35 AM 44.6 °F 39.7 °F 19.4 °F 37% 30.35 in 10.0 mi NE 9.2 mph - N/A   Overcast
11:55 AM 44.6 °F 40.7 °F 19.4 °F 37% 30.34 in 10.0 mi NE 6.9 mph - N/A   Overcast
12:15 PM 46.4 °F 42.9 °F 19.4 °F 34% 30.33 in 10.0 mi ENE 6.9 mph - N/A   Overcast
12:35 PM 46.4 °F 42.9 °F 21.2 °F 37% 30.32 in 10.0 mi ENE 6.9 mph - N/A   Overcast
12:55 PM 46.4 °F 44.3 °F 21.2 °F 37% 30.31 in 10.0 mi East 4.6 mph - N/A   Mostly Cloudy
1:15 PM 50.0 °F - 21.2 °F 32% 30.31 in 10.0 mi NNE 6.9 mph - N/A   Mostly Cloudy
1:35 PM 51.8 °F - 21.2 °F 30% 30.30 in 10.0 mi NE 8.1 mph - N/A   Mostly Cloudy
1:55 PM 51.8 °F - 21.2 °F 30% 30.29 in 10.0 mi NE 4.6 mph - N/A   Partly Cloudy
2:15 PM 51.8 °F - 19.4 °F 28% 30.29 in 10.0 mi ENE 9.2 mph - N/A   Mostly Cloudy
2:35 PM 50.0 °F - 19.4 °F 30% 30.29 in 10.0 mi NE 6.9 mph - N/A   Mostly Cloudy
2:55 PM 50.0 °F - 21.2 °F 32% 30.29 in 10.0 mi NNE 6.9 mph - N/A   Scattered Clouds
3:15 PM 51.8 °F - 21.2 °F 30% 30.29 in 10.0 mi ENE 6.9 mph - N/A   Partly Cloudy
3:35 PM 51.8 °F - 21.2 °F 30% 30.28 in 10.0 mi NE 4.6 mph - N/A   Clear
3:55 PM 50.0 °F - 21.2 °F 32% 30.29 in 10.0 mi East 4.6 mph - N/A   Clear
4:15 PM 50.0 °F - 19.4 °F 30% 30.29 in 10.0 mi NE 5.8 mph - N/A   Clear
4:35 PM 50.0 °F - 19.4 °F 30% 30.28 in 10.0 mi ENE 5.8 mph - N/A   Clear
4:55 PM 48.2 °F - 19.4 °F 32% 30.28 in 10.0 mi East 4.6 mph - N/A   Clear
5:15 PM 48.2 °F - 19.4 °F 32% 30.28 in 10.0 mi East 3.5 mph - N/A   Clear
5:35 PM 44.6 °F - 19.4 °F 37% 30.28 in 10.0 mi Calm Calm - N/A   Clear
5:55 PM 42.8 °F - 21.2 °F 42% 30.28 in 10.0 mi Calm Calm - N/A   Clear
6:15 PM 39.2 °F - 24.8 °F 56% 30.28 in 10.0 mi Calm Calm - N/A   Clear
6:35 PM 37.4 °F - 26.6 °F 65% 30.28 in 10.0 mi Calm Calm - N/A   Clear
6:55 PM 37.4 °F - 26.6 °F 65% 30.28 in 10.0 mi Calm Calm - N/A   Clear
7:15 PM 35.6 °F 29.9 °F 26.6 °F 70% 30.28 in 10.0 mi NE 6.9 mph - N/A   Clear
7:35 PM 39.2 °F 33.6 °F 24.8 °F 56% 30.28 in 10.0 mi NE 8.1 mph - N/A   Clear
8:15 PM 37.4 °F 33.8 °F 24.8 °F 60% 30.29 in 10.0 mi NE 4.6 mph - N/A   Scattered Clouds
8:35 PM 37.4 °F 33.8 °F 24.8 °F 60% 30.30 in 10.0 mi NE 4.6 mph - N/A   Partly Cloudy
8:55 PM 37.4 °F 33.8 °F 23.0 °F 56% 30.30 in 10.0 mi NE 4.6 mph - N/A   Partly Cloudy
9:15 PM 35.6 °F 31.7 °F 23.0 °F 60% 30.31 in 10.0 mi NE 4.6 mph - N/A   Partly Cloudy
9:35 PM 37.4 °F 33.8 °F 23.0 °F 56% 30.32 in 10.0 mi NE 4.6 mph - N/A   Mostly Cloudy
9:55 PM 37.4 °F 32.8 °F 23.0 °F 56% 30.32 in 10.0 mi ENE 5.8 mph - N/A   Mostly Cloudy
10:15 PM 35.6 °F 30.7 °F 23.0 °F 60% 30.33 in 10.0 mi ENE 5.8 mph - N/A   Scattered Clouds
10:35 PM 35.6 °F 30.7 °F 23.0 °F 60% 30.33 in 10.0 mi NE 5.8 mph - N/A   Clear
10:55 PM 35.6 °F 31.7 °F 23.0 °F 60% 30.33 in 10.0 mi NE 4.6 mph - N/A   Clear
11:15 PM 33.8 °F 29.6 °F 23.0 °F 65% 30.33 in 10.0 mi ENE 4.6 mph - N/A   Clear
11:35 PM 32.0 °F 27.5 °F 23.0 °F 69% 30.33 in 10.0 mi ENE 4.6 mph - N/A   Clear
11:55 PM 32.0 °F 28.7 °F 23.0 °F 69% 30.32 in 10.0 mi NE 3.5 mph - N/A   Clear